Terminal Aerodrome Forecast
Issued by NWS

Home | Current Version | Previous Version | Text Only | Print | Product List | Glossary On
Versions: 1 2 3 4 5 6 7 8 9 10 11 12 13 14 15 16 17 18
000
FTUS43 KFGF 011700
TAFTVF
TAF
KTVF 011728Z 0118/0218 19016G23KT P6SM SCT025 BKN035
     FM012100 23015KT P6SM BKN025
     FM020100 24009KT P6SM BKN050
     FM020800 25006KT P6SM BKN100
      AMD LTD TO CLD VIS AND WIND=

USA.gov is the U.S. government's official web portal to all federal, state and local government web resources and services.